Location: Igon
(43.1667°N, 0.2333°W)
Time: 14:34:40
(UTC+00:00)

Gbstr 26 Del rocket - Pass Details

Date: 29 November 2020
Orbit: 493 x 1263 km, 51.8° (Epoch: 24 January)

Event Time Altitude Azimuth Distance (km) Brightness Sun altitude
Exits shadow 04:43:24 35° 58° (ENE) 821 4.0 -26.3°
Drops below altitude 10° 04:46:11 10° 96° (E) 1,737 6.4 -25.8°
Sets 04:48:33 0° 103° (ESE) 2,682 7.7 -25.4°
